SCP
0 0 0 0 0 0 0 0 0 0 0 0 0 0 0 0 0 0 0 0 0 0 0 0 0 0 0 0 0 0 0 0 0 0 0 0 0 0 0 0 0 0 0
0 0 0 0 0 0 0 0 0 0 0 0 0 0 0 0 0 0 0 0 0 0 0 0 0 0 0 0 0 0 0 0 0 0 0 0 0 0 0 0 0 0 0
0 0 0 0 0 0 0 0 0 0 0 0 0 0 0 0 0 0 0 0 0 0 0 0 0 0 0 0 0 -0 -0 0 -0 -0 0 0 0 0 0 0 0 0 0
0 0 0 0 0 0 0 0 0 0 0 0 0 0 0 0 0 0 0 0 0 0 0 0 0 0 0 0 0 -0 0 0 0 -0 0 0 -0 0 0 0 0 0 0
0 0 0 0 0 0 0 0 0 0 0 0 0 0 0 0 0 0 0 0 0 0 0 0 0 -0 -0 -0 -0 -0 -0 -0 0 0 0 0 0 0 0 0 0 0 0
0 0 0 0 0 0 0 0 0 0 0 0 0 0 0 0 0 0 0 0 0 0 0 -0 -0 -0 -0 -0 -0 -0 -0 -0 -0 -0 -0 0 0 0 0 0 0 0 0
0 0 0 0 0 0 0 0 0 0 0 0 0 0 0 0 0 0 0 0 0 0 -0 -0 -0 -0 -0 -0 -0 -0 -0 -0 -0 -0 0 0 0 0 0 0 0 0 0
0 0 0 0 0 0 0 0 0 0 0 0 0 0 0 0 0 0 0 0 0 0 -0 -0 -0 0 0 0 -0 -0 -0 0 0 0 0 0 0 0 0 0 0 0 0
0 0 0 0 0 0 0 0 0 0 0 0 0 0 0 0 0 0 0 0 0 0 -0 -0 -0 -0 -0 -0 -0 -0 0 0 0 0 0 -0 -0 -0 0 0 0 0 0
0 0 0 0 0 0 0 0 0 0 0 0 0 0 0 0 0 0 0 0 0 -0 0 0 -0 0 -0 -0 -0 0 0 0 0 0 0 0 0 0 0 0 0 0 0
0 0 0 0 0 0 0 0 0 0 0 0 0 0 0 0 0 0 0 0 0 0 0 0 0 -0 -0 -0 -0 0 0 -0 0 0 0 0 0 0 0 0 0 0 0
0 0 0 0 0 0 0 0 0 0 0 0 0 0 0 0 0 0 -0 -0 -0 -0 0 0 0 -0 -0 -0 -0 0 0 0 0 0 0 0 0 0 0 0 0 0 0
0 0 0 0 0 0 0 0 0 0 0 0 0 0 0 0 0 0 0 0 -0 -0 0 -0 -0 0 -0 -0 -0 -0 0 0 0 0 0 0 0 0 0 0 0 0 0
0 0 0 0 0 0 0 0 0 0 0 0 0 0 0 0 0 0 0 0 -0 -0 -0 0 0 0 0 0 0 -0 0 0 0 0 0 0 0 0 0 0 0 0 0
0 0 0 0 0 0 0 0 0 0 0 0 0 0 0 0 0 0 0 0 -0 -0 0 0 0 0 0 0 0 0 0 0 0 0 0 0 0 0 0 0 0 0 0
0 0 0 0 0 0 0 0 0 0 0 0 0 0 0 0 0 0 0 0 -0 -0 0 0 0 0 0 0 0 0 0 0 0 0 0 0 0 0 0 0 0 0 0
0 0 0 0 0 0 0 0 0 0 0 0 0 0 0 0 0 0 -0 0 -0 -0 0 0 0 0 0 0 0 0 0 0 0 0 0 0 0 0 0 0 0 0 0
0 0 0 0 0 0 0 0 0 0 0 0 0 0 0 0 0 0 0 -0 -0 0 0 0 0 0 0 0 0 0 0 0 0 0 0 0 0 0 0 0 0 0 0
0 0 0 0 0 0 0 0 0 0 0 0 0 0 0 0 0 0 0 0 0 -0 0 0 0 0 0 0 0 0 0 0 0 0 0 0 0 0 0 0 0 0 0
0 0 0 0 0 0 0 0 0 0 0 0 0 0 0 0 0 0 0 0 0 0 0 -0 0 0 0 0 0 0 0 0 0 0 0 0 0 0 0 0 0 0 0
0 0 0 0 0 0 0 0 0 0 0 0 0 0 0 0 0 0 0 0 0 0 0 0 -0 -0 0 0 0 0 0 0 0 0 0 0 0 0 0 0 0 0 0
0 0 0 0 0 0 0 0 0 0 0 0 0 0 0 0 0 0 0 0 0 0 0 0 0 0 -0 0 0 -0 -0 -0 -0 -0 -0 -0 -0 -0 -0 -0 -0 -0 0
0 0 0 0 0 0 0 0 0 0 0 0 0 0 0 0 0 0 0 0 0 0 0 0 0 0 0 0 -0 0 0 0 0 0 -0 -0 -0 -0 -0 -0 -0 -0 -0
0 0 0 0 0 0 0 0 0 0 0 0 0 0 0 0 0 0 0 0 0 0 0 0 0 0 0 0 0 0 -0 -0 -0 -0 -0 -0 -0 -0 -0 -0 -0 -0 -0
0 0 0 0 0 0 0 0 0 0 0 0 0 0 0 0 0 0 0 0 0 0 0 0 0 0 0 0 0 0 0 0 0 -0 0 0 -0 -0 -0 -0 -0 -0 -0
0 0 0 0 0 0 0 0 0 0 0 0 0 0 0 0 0 0 0 0 0 0 0 0 0 0 0 0 0 0 0 0 0 0 0 0 0 0 0 0 0 -0 -0
Wind_Speed_500mb
55 62 67 72 73 71 73 74 76 82 79 79 87 81 70 73 71 71 74 76 71 73 65 53 52 62 76 82 75 74 72 66 69 94 83 86 80 74 67 62 50 53 54
61 66 70 71 70 73 76 80 80 82 82 73 72 74 69 70 70 69 69 67 69 71 68 66 68 70 70 73 71 71 63 69 70 81 88 87 80 67 61 55 55 48 47
65 67 69 70 72 75 76 76 74 74 73 75 69 64 65 70 61 62 59 62 64 66 61 62 68 71 76 72 71 71 71 73 74 75 87 78 77 66 56 46 43 39 22
66 67 68 69 72 73 71 69 68 69 70 69 66 63 66 56 55 50 55 60 61 64 62 62 64 65 68 71 72 76 75 75 72 73 76 79 66 40 39 38 33 30 25
65 68 68 70 71 70 66 64 64 66 67 66 66 61 55 54 46 58 59 72 70 70 78 72 62 61 60 62 63 70 73 76 77 78 79 66 62 36 18 11 9 14 8
65 66 68 71 71 67 62 63 64 66 67 68 64 60 60 56 54 53 58 61 66 68 62 66 62 66 62 54 56 62 70 79 85 78 75 64 35 28 18 10 8 5 4
66 65 68 71 71 64 61 61 63 67 69 66 63 64 61 54 50 55 54 61 63 77 76 72 75 67 51 49 59 67 77 69 67 67 69 26 17 13 8 7 12 10 11
68 69 69 71 70 63 60 61 63 67 68 66 65 62 56 53 52 51 54 60 74 76 74 56 60 62 54 54 70 74 59 9 13 16 20 12 24 22 9 9 16 15 16
68 69 71 70 67 63 59 61 64 68 69 71 68 65 59 55 54 52 51 62 68 76 59 51 51 57 57 66 73 74 16 12 7 22 15 15 5 8 9 17 15 11 12
69 71 71 68 62 61 58 60 63 65 70 71 71 68 59 56 55 48 50 60 63 62 67 64 58 61 63 71 71 19 13 15 16 16 17 23 23 19 18 11 13 11 13
67 69 69 64 58 56 62 61 61 63 68 72 71 67 62 59 58 49 45 53 59 68 71 67 66 63 68 63 49 16 7 7 13 14 14 15 18 20 15 14 11 17 13
67 68 66 62 57 59 63 65 64 65 69 68 70 74 65 66 56 50 46 48 53 58 66 66 68 59 61 42 19 1 8 7 11 19 22 22 19 17 14 13 14 16 12
68 67 67 62 61 61 62 67 71 69 69 69 73 69 74 65 65 50 56 51 48 52 64 52 53 46 40 31 30 11 17 17 20 21 33 28 18 15 10 10 8 5 4
68 68 68 68 66 62 61 65 68 69 69 73 66 70 67 65 64 60 62 57 56 57 56 60 39 30 24 21 41 32 29 24 26 29 25 21 15 9 5 4 2 2 3
68 69 69 68 68 69 67 66 64 60 55 64 68 66 66 64 59 55 53 54 52 47 53 43 29 24 25 28 39 42 43 37 33 27 21 16 13 11 10 7 4 1 4
70 70 67 67 69 71 72 72 60 58 53 53 50 49 53 48 50 51 49 48 40 37 39 32 29 26 24 25 27 31 31 31 28 21 15 11 7 7 6 4 1 4 6
67 65 66 66 69 71 72 74 80 71 61 57 49 47 44 46 48 49 49 42 41 32 26 27 25 24 21 17 16 16 16 15 12 7 5 2 4 7 8 9 5 5 7
62 61 64 66 67 68 68 70 72 75 79 73 59 49 45 46 47 49 41 40 34 26 26 25 23 22 20 17 13 10 7 6 4 5 8 10 10 10 11 10 11 11 10
61 62 64 66 65 66 68 68 68 69 68 67 65 56 49 57 49 50 39 36 36 33 31 29 24 21 18 16 13 11 9 8 9 10 11 11 11 12 13 13 13 15 16
61 62 64 66 69 69 67 67 67 65 66 67 65 63 57 67 64 55 49 42 36 32 31 30 25 21 19 16 15 13 12 11 11 12 12 13 15 16 18 19 20 20 21
66 69 67 67 68 68 67 65 64 65 65 65 63 59 50 53 57 56 53 46 41 36 32 30 27 23 20 20 19 18 17 15 15 17 17 18 20 21 22 25 27 29 30
66 68 71 69 68 67 65 63 62 63 63 65 65 61 58 57 56 55 52 47 42 37 32 31 28 25 23 22 23 24 24 22 21 25 26 26 26 26 28 30 31 32 34
66 70 71 70 68 68 66 62 62 63 65 66 65 65 62 60 56 54 54 50 45 40 34 31 28 24 23 26 28 30 31 27 28 33 33 33 34 34 34 36 35 35 34
64 68 71 72 70 70 68 65 64 65 66 67 66 64 62 60 58 58 57 53 48 41 35 32 29 26 23 23 26 29 32 31 32 35 38 39 38 36 37 38 37 37 36
62 66 70 73 71 72 70 66 66 67 68 67 65 64 63 63 63 61 59 57 53 45 37 33 31 27 22 21 23 24 26 30 32 32 36 38 38 36 37 39 36 34 32
60 64 69 72 71 70 69 67 68 68 69 67 65 64 67 68 67 65 64 62 57 49 42 36 32 29 26 22 19 20 21 23 25 28 31 32 32 30 30 30 27 28 27
Wind_Direction_500mb
333 334 332 331 329 326 325 323 319 317 315 309 307 313 313 310 311 307 304 301 302 301 304 302 296 293 295 293 292 288 284 285 285 289 292 298 299 296 295 292 288 286 280
336 332 333 332 331 331 331 328 328 323 323 322 317 314 317 315 315 315 314 313 308 304 305 304 301 295 290 290 292 290 291 287 287 287 293 295 297 292 294 287 284 289 291
335 335 335 335 335 335 333 335 333 333 332 330 327 325 323 317 323 320 319 317 316 313 309 305 300 295 292 292 292 291 289 286 287 287 289 291 292 288 287 282 282 264 260
336 335 336 335 337 335 338 337 338 339 337 338 337 327 324 327 323 326 323 322 322 317 311 304 300 294 295 292 292 288 286 283 283 285 287 294 294 279 272 259 233 240 245
335 337 336 336 337 338 339 339 341 341 340 340 337 337 337 333 331 328 324 324 321 320 318 314 306 302 293 286 283 282 282 282 281 280 282 284 284 262 246 226 224 232 202
337 337 336 338 337 338 338 340 341 341 344 344 340 340 333 333 326 327 326 325 324 320 318 320 319 314 308 293 284 277 274 273 273 271 272 275 283 200 207 219 235 202 119
337 336 339 338 335 336 337 339 340 343 345 343 344 344 341 340 332 329 328 325 327 333 330 329 326 329 331 319 320 309 303 290 275 265 261 227 232 243 195 209 199 171 154
336 337 337 338 334 334 336 336 339 343 342 343 347 347 339 344 331 331 329 330 336 337 336 339 338 340 339 329 321 305 306 193 251 264 199 249 242 198 184 192 183 173 146
337 337 338 336 333 333 334 334 338 338 339 343 344 344 343 345 338 332 330 333 336 344 349 347 339 332 334 328 327 329 91 86 91 81 149 193 111 116 146 159 162 172 151
338 337 337 336 334 331 331 334 336 334 336 340 340 342 342 343 340 331 329 332 336 341 339 335 332 334 333 331 336 2 49 60 72 92 107 128 122 128 123 120 140 144 146
337 339 338 338 336 333 332 335 335 336 335 337 338 340 344 341 339 334 329 330 335 338 337 335 332 335 335 333 337 342 13 50 89 98 101 113 130 114 119 143 145 160 152
341 340 340 341 338 337 334 334 337 337 337 338 340 341 337 337 336 332 331 330 331 333 329 334 328 336 335 348 344 275 163 103 112 110 107 116 117 127 156 159 154 139 134
343 342 343 342 342 338 336 336 338 340 338 337 338 334 327 331 333 336 344 335 332 330 330 328 330 336 349 0 58 92 123 111 114 130 122 121 115 118 130 141 163 194 211
343 344 344 343 341 340 340 342 338 339 333 335 328 325 326 329 333 343 338 333 337 333 330 327 336 353 16 30 83 128 123 132 132 125 115 114 106 99 95 92 87 230 230
345 346 344 342 342 341 344 343 339 338 332 325 326 326 328 328 335 332 332 334 333 335 320 329 348 8 24 45 64 87 110 118 113 111 110 104 94 85 77 65 79 48 324
348 346 344 344 343 345 342 343 350 345 336 330 329 329 327 329 330 332 334 334 333 338 326 344 356 7 16 25 39 60 83 96 104 111 109 98 72 43 42 83 151 234 251
348 347 346 347 347 345 346 345 342 352 357 356 344 337 337 332 336 339 335 331 328 335 337 348 351 354 1 7 18 30 47 65 76 79 77 34 337 328 326 323 308 264 264
353 353 352 351 349 348 347 346 347 345 347 353 358 352 342 340 342 337 339 327 333 346 344 340 339 341 344 346 348 346 350 350 337 311 309 311 317 318 315 311 309 305 299
356 355 356 354 353 352 351 349 348 348 347 349 354 359 357 358 346 343 345 346 341 339 335 334 330 324 324 327 327 326 318 306 295 291 294 295 293 293 292 290 285 285 286
2 1 358 355 356 354 353 352 351 350 351 352 353 351 354 351 341 352 355 350 343 335 327 323 323 316 310 305 302 300 298 294 288 284 281 283 287 290 292 292 290 287 286
5 4 1 0 357 355 354 355 353 353 352 352 354 356 341 334 347 352 352 350 344 338 331 321 314 308 300 294 288 284 284 286 288 286 283 281 282 284 284 284 286 286 286
6 4 5 360 358 359 359 358 358 356 355 353 354 356 357 354 353 353 353 351 347 341 333 323 317 306 295 284 278 275 272 271 273 276 278 281 281 283 285 285 284 285 285
5 6 4 3 1 1 2 1 360 358 356 356 355 356 358 357 356 356 355 353 350 346 340 331 323 313 297 285 279 278 275 272 270 270 273 274 277 281 283 284 285 285 283
7 5 3 4 4 4 4 3 2 1 359 359 359 360 359 359 358 357 356 356 354 350 344 338 332 324 310 293 281 277 276 273 268 269 271 274 276 277 280 282 283 283 281
7 5 5 5 5 6 5 5 4 3 3 3 3 3 3 1 359 359 359 360 360 357 354 347 340 335 327 313 299 287 278 275 273 269 267 271 273 274 275 276 278 278 274
7 6 7 7 7 8 6 6 7 6 5 6 5 5 4 5 5 5 4 2 1 360 357 353 348 342 336 328 317 303 294 285 278 273 272 272 275 276 274 275 275 275 276
Wind_Speed_850mb
55 62 67 72 73 71 73 74 76 82 79 79 87 81 70 73 71 71 74 76 71 73 65 53 52 62 76 82 75 74 72 66 69 94 83 86 80 74 67 62 50 53 54
61 66 70 71 70 73 76 80 80 82 82 73 72 74 69 70 70 69 69 67 69 71 68 66 68 70 70 73 71 71 63 69 70 81 88 87 80 67 61 55 55 48 47
65 67 69 70 72 75 76 76 74 74 73 75 69 64 65 70 61 62 59 62 64 66 61 62 68 71 76 72 71 71 71 73 74 75 87 78 77 66 56 46 43 39 22
66 67 68 69 72 73 71 69 68 69 70 69 66 63 66 56 55 50 55 60 61 64 62 62 64 65 68 71 72 76 75 75 72 73 76 79 66 40 39 38 33 30 25
65 68 68 70 71 70 66 64 64 66 67 66 66 61 55 54 46 58 59 72 70 70 78 72 62 61 60 62 63 70 73 76 77 78 79 66 62 36 18 11 9 14 8
65 66 68 71 71 67 62 63 64 66 67 68 64 60 60 56 54 53 58 61 66 68 62 66 62 66 62 54 56 62 70 79 85 78 75 64 35 28 18 10 8 5 4
66 65 68 71 71 64 61 61 63 67 69 66 63 64 61 54 50 55 54 61 63 77 76 72 75 67 51 49 59 67 77 69 67 67 69 26 17 13 8 7 12 10 11
68 69 69 71 70 63 60 61 63 67 68 66 65 62 56 53 52 51 54 60 74 76 74 56 60 62 54 54 70 74 59 9 13 16 20 12 24 22 9 9 16 15 16
68 69 71 70 67 63 59 61 64 68 69 71 68 65 59 55 54 52 51 62 68 76 59 51 51 57 57 66 73 74 16 12 7 22 15 15 5 8 9 17 15 11 12
69 71 71 68 62 61 58 60 63 65 70 71 71 68 59 56 55 48 50 60 63 62 67 64 58 61 63 71 71 19 13 15 16 16 17 23 23 19 18 11 13 11 13
67 69 69 64 58 56 62 61 61 63 68 72 71 67 62 59 58 49 45 53 59 68 71 67 66 63 68 63 49 16 7 7 13 14 14 15 18 20 15 14 11 17 13
67 68 66 62 57 59 63 65 64 65 69 68 70 74 65 66 56 50 46 48 53 58 66 66 68 59 61 42 19 1 8 7 11 19 22 22 19 17 14 13 14 16 12
68 67 67 62 61 61 62 67 71 69 69 69 73 69 74 65 65 50 56 51 48 52 64 52 53 46 40 31 30 11 17 17 20 21 33 28 18 15 10 10 8 5 4
68 68 68 68 66 62 61 65 68 69 69 73 66 70 67 65 64 60 62 57 56 57 56 60 39 30 24 21 41 32 29 24 26 29 25 21 15 9 5 4 2 2 3
68 69 69 68 68 69 67 66 64 60 55 64 68 66 66 64 59 55 53 54 52 47 53 43 29 24 25 28 39 42 43 37 33 27 21 16 13 11 10 7 4 1 4
70 70 67 67 69 71 72 72 60 58 53 53 50 49 53 48 50 51 49 48 40 37 39 32 29 26 24 25 27 31 31 31 28 21 15 11 7 7 6 4 1 4 6
67 65 66 66 69 71 72 74 80 71 61 57 49 47 44 46 48 49 49 42 41 32 26 27 25 24 21 17 16 16 16 15 12 7 5 2 4 7 8 9 5 5 7
62 61 64 66 67 68 68 70 72 75 79 73 59 49 45 46 47 49 41 40 34 26 26 25 23 22 20 17 13 10 7 6 4 5 8 10 10 10 11 10 11 11 10
61 62 64 66 65 66 68 68 68 69 68 67 65 56 49 57 49 50 39 36 36 33 31 29 24 21 18 16 13 11 9 8 9 10 11 11 11 12 13 13 13 15 16
61 62 64 66 69 69 67 67 67 65 66 67 65 63 57 67 64 55 49 42 36 32 31 30 25 21 19 16 15 13 12 11 11 12 12 13 15 16 18 19 20 20 21
66 69 67 67 68 68 67 65 64 65 65 65 63 59 50 53 57 56 53 46 41 36 32 30 27 23 20 20 19 18 17 15 15 17 17 18 20 21 22 25 27 29 30
66 68 71 69 68 67 65 63 62 63 63 65 65 61 58 57 56 55 52 47 42 37 32 31 28 25 23 22 23 24 24 22 21 25 26 26 26 26 28 30 31 32 34
66 70 71 70 68 68 66 62 62 63 65 66 65 65 62 60 56 54 54 50 45 40 34 31 28 24 23 26 28 30 31 27 28 33 33 33 34 34 34 36 35 35 34
64 68 71 72 70 70 68 65 64 65 66 67 66 64 62 60 58 58 57 53 48 41 35 32 29 26 23 23 26 29 32 31 32 35 38 39 38 36 37 38 37 37 36
62 66 70 73 71 72 70 66 66 67 68 67 65 64 63 63 63 61 59 57 53 45 37 33 31 27 22 21 23 24 26 30 32 32 36 38 38 36 37 39 36 34 32
60 64 69 72 71 70 69 67 68 68 69 67 65 64 67 68 67 65 64 62 57 49 42 36 32 29 26 22 19 20 21 23 25 28 31 32 32 30 30 30 27 28 27
Wind_Direction_850mb
333 334 332 331 329 326 325 323 319 317 315 309 307 313 313 310 311 307 304 301 302 301 304 302 296 293 295 293 292 288 284 285 285 289 292 298 299 296 295 292 288 286 280
336 332 333 332 331 331 331 328 328 323 323 322 317 314 317 315 315 315 314 313 308 304 305 304 301 295 290 290 292 290 291 287 287 287 293 295 297 292 294 287 284 289 291
335 335 335 335 335 335 333 335 333 333 332 330 327 325 323 317 323 320 319 317 316 313 309 305 300 295 292 292 292 291 289 286 287 287 289 291 292 288 287 282 282 264 260
336 335 336 335 337 335 338 337 338 339 337 338 337 327 324 327 323 326 323 322 322 317 311 304 300 294 295 292 292 288 286 283 283 285 287 294 294 279 272 259 233 240 245
335 337 336 336 337 338 339 339 341 341 340 340 337 337 337 333 331 328 324 324 321 320 318 314 306 302 293 286 283 282 282 282 281 280 282 284 284 262 246 226 224 232 202
337 337 336 338 337 338 338 340 341 341 344 344 340 340 333 333 326 327 326 325 324 320 318 320 319 314 308 293 284 277 274 273 273 271 272 275 283 200 207 219 235 202 119
337 336 339 338 335 336 337 339 340 343 345 343 344 344 341 340 332 329 328 325 327 333 330 329 326 329 331 319 320 309 303 290 275 265 261 227 232 243 195 209 199 171 154
336 337 337 338 334 334 336 336 339 343 342 343 347 347 339 344 331 331 329 330 336 337 336 339 338 340 339 329 321 305 306 193 251 264 199 249 242 198 184 192 183 173 146
337 337 338 336 333 333 334 334 338 338 339 343 344 344 343 345 338 332 330 333 336 344 349 347 339 332 334 328 327 329 91 86 91 81 149 193 111 116 146 159 162 172 151
338 337 337 336 334 331 331 334 336 334 336 340 340 342 342 343 340 331 329 332 336 341 339 335 332 334 333 331 336 2 49 60 72 92 107 128 122 128 123 120 140 144 146
337 339 338 338 336 333 332 335 335 336 335 337 338 340 344 341 339 334 329 330 335 338 337 335 332 335 335 333 337 342 13 50 89 98 101 113 130 114 119 143 145 160 152
341 340 340 341 338 337 334 334 337 337 337 338 340 341 337 337 336 332 331 330 331 333 329 334 328 336 335 348 344 275 163 103 112 110 107 116 117 127 156 159 154 139 134
343 342 343 342 342 338 336 336 338 340 338 337 338 334 327 331 333 336 344 335 332 330 330 328 330 336 349 0 58 92 123 111 114 130 122 121 115 118 130 141 163 194 211
343 344 344 343 341 340 340 342 338 339 333 335 328 325 326 329 333 343 338 333 337 333 330 327 336 353 16 30 83 128 123 132 132 125 115 114 106 99 95 92 87 230 230
345 346 344 342 342 341 344 343 339 338 332 325 326 326 328 328 335 332 332 334 333 335 320 329 348 8 24 45 64 87 110 118 113 111 110 104 94 85 77 65 79 48 324
348 346 344 344 343 345 342 343 350 345 336 330 329 329 327 329 330 332 334 334 333 338 326 344 356 7 16 25 39 60 83 96 104 111 109 98 72 43 42 83 151 234 251
348 347 346 347 347 345 346 345 342 352 357 356 344 337 337 332 336 339 335 331 328 335 337 348 351 354 1 7 18 30 47 65 76 79 77 34 337 328 326 323 308 264 264
353 353 352 351 349 348 347 346 347 345 347 353 358 352 342 340 342 337 339 327 333 346 344 340 339 341 344 346 348 346 350 350 337 311 309 311 317 318 315 311 309 305 299
356 355 356 354 353 352 351 349 348 348 347 349 354 359 357 358 346 343 345 346 341 339 335 334 330 324 324 327 327 326 318 306 295 291 294 295 293 293 292 290 285 285 286
2 1 358 355 356 354 353 352 351 350 351 352 353 351 354 351 341 352 355 350 343 335 327 323 323 316 310 305 302 300 298 294 288 284 281 283 287 290 292 292 290 287 286
5 4 1 0 357 355 354 355 353 353 352 352 354 356 341 334 347 352 352 350 344 338 331 321 314 308 300 294 288 284 284 286 288 286 283 281 282 284 284 284 286 286 286
6 4 5 360 358 359 359 358 358 356 355 353 354 356 357 354 353 353 353 351 347 341 333 323 317 306 295 284 278 275 272 271 273 276 278 281 281 283 285 285 284 285 285
5 6 4 3 1 1 2 1 360 358 356 356 355 356 358 357 356 356 355 353 350 346 340 331 323 313 297 285 279 278 275 272 270 270 273 274 277 281 283 284 285 285 283
7 5 3 4 4 4 4 3 2 1 359 359 359 360 359 359 358 357 356 356 354 350 344 338 332 324 310 293 281 277 276 273 268 269 271 274 276 277 280 282 283 283 281
7 5 5 5 5 6 5 5 4 3 3 3 3 3 3 1 359 359 359 360 360 357 354 347 340 335 327 313 299 287 278 275 273 269 267 271 273 274 275 276 278 278 274
7 6 7 7 7 8 6 6 7 6 5 6 5 5 4 5 5 5 4 2 1 360 357 353 348 342 336 328 317 303 294 285 278 273 272 272 275 276 274 275 275 275 276